Time,TemperatureF,DewpointF,PressureIn,WindDirection,WindDirectionDegrees,WindSpeedMPH,WindSpeedGustMPH,Humidity,HourlyPrecipIn,Conditions,Clouds,dailyrainin,SoftwareType,DateUTC
2015-08-05 00:03:00,66.7,52.7,29.87,NE,45,0.0,0.0,61,0.00,,,0.00,LWC V2.10 B1500,2015-08-05 07:03:00,
2015-08-05 00:08:00,66.6,52.7,29.87,ENE,67,0.0,0.0,61,0.00,,,0.00,LWC V2.10 B1500,2015-08-05 07:08:00,
2015-08-05 00:13:00,66.6,52.7,29.87,ENE,67,0.0,0.0,61,0.00,,,0.00,LWC V2.10 B1500,2015-08-05 07:13:00,
2015-08-05 00:18:00,66.4,52.6,29.87,East,90,0.0,0.0,61,0.00,,,0.00,LWC V2.10 B1500,2015-08-05 07:18:00,
2015-08-05 00:23:00,66.4,52.6,29.87,East,90,0.0,0.0,61,0.00,,,0.00,LWC V2.10 B1500,2015-08-05 07:23:00,
2015-08-05 00:28:00,66.2,52.4,29.87,East,90,0.0,0.0,61,0.00,,,0.00,LWC V2.10 B1500,2015-08-05 07:28:00,
2015-08-05 00:33:00,66.0,52.6,29.87,East,90,0.0,0.0,62,0.00,,,0.00,LWC V2.10 B1500,2015-08-05 07:33:00,
2015-08-05 00:38:00,66.0,52.6,29.87,East,90,0.0,0.0,62,0.00,,,0.00,LWC V2.10 B1500,2015-08-05 07:38:00,
2015-08-05 00:43:00,65.5,52.1,29.87,East,90,0.0,0.0,62,0.00,,,0.00,LWC V2.10 B1500,2015-08-05 07:43:00,
2015-08-05 00:48:00,65.3,51.9,29.87,East,90,0.0,0.0,62,0.00,,,0.00,LWC V2.10 B1500,2015-08-05 07:48:00,
2015-08-05 00:53:00,65.3,51.9,29.87,East,90,0.0,0.0,62,0.00,,,0.00,LWC V2.10 B1500,2015-08-05 07:53:00,
2015-08-05 00:58:00,65.1,52.2,29.87,East,90,0.0,0.0,63,0.00,,,0.00,LWC V2.10 B1500,2015-08-05 07:58:00,
2015-08-05 01:03:00,65.1,52.2,29.87,East,90,0.0,0.0,63,0.00,,,0.00,LWC V2.10 B1500,2015-08-05 08:03:00,
2015-08-05 01:08:00,64.8,52.2,29.87,East,90,0.0,0.0,64,0.00,,,0.00,LWC V2.10 B1500,2015-08-05 08:08:00,
2015-08-05 01:13:00,64.2,51.7,29.87,East,90,0.0,0.0,64,0.00,,,0.00,LWC V2.10 B1500,2015-08-05 08:13:00,
2015-08-05 01:18:00,64.2,51.7,29.88,East,90,0.0,0.0,64,0.00,,,0.00,LWC V2.10 B1500,2015-08-05 08:18:00,
2015-08-05 01:23:00,64.0,52.0,29.88,East,90,0.0,0.0,65,0.00,,,0.00,LWC V2.10 B1500,2015-08-05 08:23:00,
2015-08-05 01:28:00,63.7,51.7,29.88,East,90,0.0,0.0,65,0.00,,,0.00,LWC V2.10 B1500,2015-08-05 08:28:00,
2015-08-05 01:33:00,63.3,51.3,29.88,East,90,0.0,0.0,65,0.00,,,0.00,LWC V2.10 B1500,2015-08-05 08:33:00,
2015-08-05 01:38:00,63.1,51.1,29.88,East,90,0.0,0.0,65,0.00,,,0.00,LWC V2.10 B1500,2015-08-05 08:38:00,
2015-08-05 01:43:00,63.1,51.5,29.87,East,90,0.0,0.0,66,0.00,,,0.00,LWC V2.10 B1500,2015-08-05 08:43:00,
2015-08-05 01:48:00,62.8,51.2,29.88,East,90,0.0,0.0,66,0.00,,,0.00,LWC V2.10 B1500,2015-08-05 08:48:00,
2015-08-05 01:53:00,62.4,50.9,29.88,East,90,0.0,0.0,66,0.00,,,0.00,LWC V2.10 B1500,2015-08-05 08:53:00,
2015-08-05 01:58:00,62.4,50.9,29.88,East,90,0.0,0.0,66,0.00,,,0.00,LWC V2.10 B1500,2015-08-05 08:58:00,
2015-08-05 02:03:00,62.2,51.1,29.88,East,90,0.0,0.0,67,0.00,,,0.00,LWC V2.10 B1500,2015-08-05 09:03:00,
2015-08-05 02:08:00,61.9,50.8,29.88,East,90,0.0,0.0,67,0.00,,,0.00,LWC V2.10 B1500,2015-08-05 09:08:00,
2015-08-05 02:13:00,61.9,50.8,29.88,East,90,0.0,0.0,67,0.00,,,0.00,LWC V2.10 B1500,2015-08-05 09:13:00,
2015-08-05 02:18:00,61.7,50.6,29.88,East,90,0.0,0.0,67,0.00,,,0.00,LWC V2.10 B1500,2015-08-05 09:18:00,
2015-08-05 02:23:00,61.5,50.5,29.88,East,90,0.0,0.0,67,0.00,,,0.00,LWC V2.10 B1500,2015-08-05 09:23:00,
2015-08-05 02:28:00,61.5,50.5,29.89,East,90,0.0,0.0,67,0.00,,,0.00,LWC V2.10 B1500,2015-08-05 09:28:00,
2015-08-05 02:33:00,61.3,50.3,29.89,East,90,0.0,0.0,67,0.00,,,0.00,LWC V2.10 B1500,2015-08-05 09:33:00,
2015-08-05 02:38:00,61.3,50.3,29.89,East,90,0.0,0.0,67,0.00,,,0.00,LWC V2.10 B1500,2015-08-05 09:38:00,
2015-08-05 02:43:00,61.0,50.0,29.89,East,90,0.0,0.0,67,0.00,,,0.00,LWC V2.10 B1500,2015-08-05 09:43:00,
2015-08-05 02:48:00,61.0,50.0,29.90,East,90,0.0,0.0,67,0.00,,,0.00,LWC V2.10 B1500,2015-08-05 09:48:00,
2015-08-05 02:53:00,60.8,49.8,29.89,East,90,0.0,0.0,67,0.00,,,0.00,LWC V2.10 B1500,2015-08-05 09:53:00,
2015-08-05 02:58:00,60.6,49.7,29.89,East,90,0.0,0.0,67,0.00,,,0.00,LWC V2.10 B1500,2015-08-05 09:58:00,
2015-08-05 03:03:00,60.6,49.7,29.89,East,90,0.0,0.0,67,0.00,,,0.00,LWC V2.10 B1500,2015-08-05 10:03:00,
2015-08-05 03:08:00,60.6,50.1,29.90,East,90,0.0,0.0,68,0.00,,,0.00,LWC V2.10 B1500,2015-08-05 10:08:00,
2015-08-05 03:13:00,60.4,49.9,29.90,East,90,0.0,0.0,68,0.00,,,0.00,LWC V2.10 B1500,2015-08-05 10:13:00,
2015-08-05 03:18:00,60.1,49.5,29.89,East,90,0.0,0.0,68,0.00,,,0.00,LWC V2.10 B1500,2015-08-05 10:18:00,
2015-08-05 03:23:00,59.9,49.8,29.89,East,90,0.0,0.0,69,0.00,,,0.00,LWC V2.10 B1500,2015-08-05 10:23:00,
2015-08-05 03:28:00,59.5,49.4,29.90,East,90,0.0,0.0,69,0.00,,,0.00,LWC V2.10 B1500,2015-08-05 10:28:00,
2015-08-05 03:33:00,59.5,49.4,29.90,East,90,0.0,0.0,69,0.00,,,0.00,LWC V2.10 B1500,2015-08-05 10:33:00,
2015-08-05 03:38:00,59.2,49.2,29.90,East,90,0.0,0.0,69,0.00,,,0.00,LWC V2.10 B1500,2015-08-05 10:38:00,
2015-08-05 03:43:00,58.8,48.7,29.89,East,90,0.0,0.0,69,0.00,,,0.00,LWC V2.10 B1500,2015-08-05 10:43:00,
2015-08-05 03:48:00,58.8,48.7,29.90,East,90,0.0,0.0,69,0.00,,,0.00,LWC V2.10 B1500,2015-08-05 10:48:00,
2015-08-05 03:53:00,58.8,48.7,29.90,East,90,0.0,0.0,69,0.00,,,0.00,LWC V2.10 B1500,2015-08-05 10:53:00,